Weather in Starobilsk

Ukraine / Luhansk Region     49˚16′52″N   38˚54′20″E
temp.,
°C
wind,
m/s
gust,
m/s
humid.,
%
clouds,
%
prec.,
mm/h
press.,
hPa
HPBL,
m
2 december, wed
wed223:00−3˚ese613690 0.0 1032546
02:00−4˚ese511741 0.0 1032531
05:00−5˚ese511767 0.0 1032549
08:00−5˚ese6117453 0.0 1032470
11:00−3˚ese61073100 0.0 1033484
14:00−2˚ese61075100 0.0 1032524
17:00−3˚ese5117884 0.0 1032511
20:00−3˚ese6117692 0.0 1033527
3 december, thu
thu323:00−3˚ese71276100 0.0 1033468
02:00−3˚ese61178100 0.0 1033448
05:00−3˚ese61079100 0.0 1032450
08:00−4˚ese61178100 0.0 1033447
11:00−2˚ese7117898 0.0 1033481
14:00−1˚ese6118399 0.0 1032575
17:00−2˚ese71291100 0.2 1032419
20:00−2˚se6118699 0.6 1032463
4 december, fri
fri423:00−3˚ese5109199 0.2 1032460
02:00−3˚ese599197 0.3 1032450
05:00−3˚ese5991100 0.1 1032438
08:00−3˚ese6109198 0.4 1033416
11:00−2˚ese6982100 0.0 1033430
14:00−2˚ese61081100 0.0 1032437
17:00−2˚ese61178100 0.0 1034515
20:00−3˚ese61169100 0.0 1034501
5 december, sat
sat523:00−4˚ese6117194 0.0 1034437
02:00−5˚ese5117288 0.0 1035405
05:00−6˚e612731 0.0 1035375
08:00−6˚ese612701 0.0 1035391
11:00−3˚e611583 0.0 1035455
14:00−3˚e611592 0.0 1035470
17:00−5˚e613700 0.0 1036363
20:00−6˚e511660 0.0 1036343
6 december, sun
sun623:00−7˚e510660 0.0 1037336
02:00−8˚e510690 0.0 1037305
05:00−8˚e511700 0.0 1037299
08:00−8˚e510680 0.0 1038328
11:00−5˚e69560 0.0 1037395
14:00−4˚e69610 0.0 1037429
17:00−7˚e510850 0.0 1037350
20:00−7˚e511790 0.0 1037392